Change the Weather History Date:

Saturday, July 26, 2014

  Actual Average Record
Temperature  
Mean Temperature 80 °F 80 °F  
Max Temperature 94 °F 94 °F 107 °F (1960)
Min Temperature 66 °F 66 °F 54 °F (1993)
Degree Days  
Heating Degree Days 0 0  
Month to date heating degree days 0 0  
Since 1 June heating degree days 39 46  
Since 1 July heating degree days 0 0  
Cooling Degree Days 15 15  
Month to date cooling degree days 459 351  
Year to date cooling degree days 701 588  
Since 1 June cooling degree days 639 538  
Growing Degree Days 30 (Base 50)    
Moisture  
Dew Point 42 °F    
Average Humidity 36    
Maximum Humidity 56    
Minimum Humidity 15    
Precipitation  
Precipitation 0.00 in 0.02 in 0.53 in (1941)
Month to date precipitation 0.22 0.50  
Year to date precipitation 7.89 9.71  
Snow  
Snow 0.00 in 0.00 in - ()
Month to date snowfall 0.0 0.0  
Since 1 July snowfall 0.0 0.0  
Snow Depth 0.00 in    
Sea Level Pressure  
Sea Level Pressure 29.91 in    
Wind  
Wind Speed 5 mph (NW)    
Max Wind Speed 14 mph    
Max Gust Speed 19 mph    
Visibility 10 miles    
Events      
T = Trace of Precipitation, MM = Missing Value Source: NWS Daily Summary

Daily Weather History Graph

Daily Weather History Graph

Search for Another Location

Airport or City:

Trip Planner

Search our weather history database for the weather conditions in past years. The results will help you decide how hot, cold, wet, or windy it might be!

Date:

Astronomy

Jul. 26, 2014 Rise Set
Actual Time 6:18 AM MDT 8:49 PM MDT
Civil Twilight 5:47 AM MDT 9:20 PM MDT
Nautical Twilight 5:08 AM MDT 9:59 PM MDT
Astronomical Twilight 4:24 AM MDT 10:42 PM MDT
Moon 6:15 AM MDT (7/26) 8:25 PM MDT (7/26)
Length of Visible Light 15h 33m
Length of Day
14h 30m
Waning Crescent, 0% of the Moon is Illuminated
Jul 26
Waning Crescent
Jul 26
New
Aug 3
First Quarter
Aug 10
Full
Aug 17
Last Quarter

Hourly Weather History & Observations

Time (MDT) Temp. Dew Point Humidity Pressure Visibility Wind Dir Wind Speed Gust Speed Precip Events Conditions
12:53 AM 77.0 °F 42.1 °F 29% 29.83 in 10.0 mi SE 6.9 mph - N/A   Partly Cloudy
1:53 AM 75.0 °F 45.0 °F 34% 29.83 in 10.0 mi Calm Calm - N/A   Partly Cloudy
2:53 AM 73.0 °F 45.0 °F 37% 29.85 in 10.0 mi NW 5.8 mph - N/A   Clear
3:53 AM 69.1 °F 46.0 °F 44% 29.86 in 10.0 mi West 3.5 mph - N/A   Partly Cloudy
4:53 AM 70.0 °F 44.1 °F 39% 29.87 in 10.0 mi WSW 3.5 mph - N/A   Partly Cloudy
5:53 AM 66.9 °F 46.9 °F 49% 29.90 in 10.0 mi Calm Calm - N/A   Mostly Cloudy
6:53 AM 68.0 °F 51.1 °F 55% 29.92 in 10.0 mi Calm Calm - N/A   Mostly Cloudy
7:53 AM 72.0 °F 50.0 °F 46% 29.94 in 10.0 mi Calm Calm - N/A   Scattered Clouds
9:53 AM 81.0 °F 44.1 °F 27% 29.96 in 10.0 mi NW 5.8 mph - N/A   Scattered Clouds
12:53 PM 88.0 °F 46.9 °F 24% 29.96 in 10.0 mi NW 4.6 mph - N/A   Scattered Clouds
1:53 PM 89.1 °F 39.0 °F 17% 29.95 in 10.0 mi West 6.9 mph - N/A   Scattered Clouds
2:53 PM 93.0 °F 37.0 °F 14% 29.93 in 10.0 mi NW 9.2 mph - N/A   Scattered Clouds
3:53 PM 93.0 °F 36.0 °F 13% 29.92 in 10.0 mi NW 10.4 mph - N/A   Mostly Cloudy
4:53 PM 93.0 °F 41.0 °F 16% 29.90 in 10.0 mi NW 10.4 mph - N/A   Mostly Cloudy
5:53 PM 93.0 °F 39.0 °F 15% 29.91 in 10.0 mi NNW 10.4 mph 19.6 mph N/A   Mostly Cloudy
6:53 PM 91.0 °F 30.0 °F 11% 29.90 in 10.0 mi NNW 9.2 mph - N/A   Mostly Cloudy
7:53 PM 90.0 °F 33.1 °F 13% 29.90 in 10.0 mi North 6.9 mph - N/A   Mostly Cloudy
8:53 PM 86.0 °F 39.0 °F 19% 29.90 in 10.0 mi North 4.6 mph - N/A   Mostly Cloudy
9:53 PM 82.0 °F 42.1 °F 24% 29.91 in 10.0 mi SSW 3.5 mph - N/A   Mostly Cloudy
10:53 PM 81.0 °F 39.9 °F 23% 29.92 in 10.0 mi SSE 4.6 mph - N/A   Scattered Clouds
11:53 PM 79.0 °F 39.0 °F 24% 29.94 in 10.0 mi Calm Calm - N/A   Mostly Cloudy